KC7YCE Weather Reports


time (UTC)temp
F
wind
direction
speed
knots
gust
knots
rain 1hr
in
rain 24hr
in
rain mn
in
humidity
%
barometer
mb
20260508130242 32 142 1.7 4.3 0.00 0.00 0.00 79 1022.9
20260508125242 32 155 2.6 3.5 0.00 0.00 0.00 79 1022.9
20260508124242 32 153 0.9 2.6 0.00 0.00 0.00 80 1022.8
20260508123242 31 135 0.0 2.6 0.00 0.00 0.00 81 1022.8
20260508122242 31 152 0.0 2.6 0.00 0.00 0.00 81 1022.9
20260508120213 32 139 0.0 2.6 0.00 0.00 0.00 80 1022.8
20260508115213 32 148 0.9 2.6 0.00 0.00 0.00 80 1022.7
20260508114142 32 134 0.9 2.6 0.00 0.00 0.00 80 1022.7
20260508104112 33 141 0.9 2.6 0.00 0.00 0.00 80 1022.5
20260508102112 33 153 1.7 2.6 0.00 0.00 0.00 80 1022.6
20260508094111 33 135 0.9 3.5 0.00 0.00 0.00 80 1022.4
20260508093112 33 148 0.9 1.7 0.00 0.00 0.00 80 1022.3
20260508092046 33 136 0.0 2.6 0.00 0.00 0.00 80 1022.4
20260508085011 33 155 0.0 0.0 0.00 0.00 0.00 80 1022.4
20260508084011 33 124 0.0 0.0 0.00 0.00 0.00 80 1022.5
20260508083011 33 124 0.0 0.0 0.00 0.00 0.00 80 1022.4
20260508081011 34 147 0.0 0.9 0.00 0.00 0.00 78 1022.5
20260508080011 34 152 0.0 0.9 0.00 0.00 0.00 77 1022.5
20260508074941 34 133 0.0 0.9 0.00 0.00 0.00 77 1022.6
20260508071911 35 149 0.0 2.6 0.00 0.00 0.00 76 1022.6
20260508070911 36 150 0.0 2.6 0.00 0.00 0.00 75 1022.5
20260508065911 36 137 0.9 0.9 0.00 0.00 0.00 75 1022.5
20260508064910 36 150 0.9 2.6 0.00 0.00 0.00 75 1022.5
20260508063911 36 162 1.7 2.6 0.00 0.00 0.00 75 1022.5
20260508062911 36 128 0.0 1.7 0.00 0.00 0.00 74 1022.4
20260508061910 36 146 0.0 2.6 0.00 0.00 0.00 74 1022.3
20260508060910 36 128 0.0 1.7 0.00 0.00 0.00 74 1022.3
20260508055910 37 139 0.0 1.7 0.00 0.00 0.00 73 1022.3
20260508054840 37 150 0.0 2.6 0.00 0.00 0.00 73 1022.3
20260508053840 37 138 0.0 2.6 0.00 0.00 0.00 73 1022.3
20260508052840 38 126 0.9 1.7 0.00 0.00 0.00 72 1022.3
20260508051810 38 138 0.0 1.7 0.00 0.00 0.00 72 1022.3
20260508050740 38 129 0.9 1.7 0.00 0.00 0.00 72 1022.3
20260508045710 38 155 0.0 0.9 0.00 0.00 0.00 71 1022.3
20260508044710 39 155 0.0 1.7 0.00 0.00 0.00 71 1022.2
20260508043710 39 143 0.0 0.9 0.00 0.00 0.00 70 1022.3
20260508040712 40 150 0.0 1.7 0.00 0.00 0.00 69 1022.3
20260508035710 40 150 0.0 0.9 0.00 0.00 0.00 70 1022.2
20260508034710 40 295 0.0 0.0 0.00 0.00 0.00 68 1022.1
20260508033710 41 295 0.0 0.0 0.00 0.00 0.00 65 1022.0
20260508032710 43 295 0.0 0.0 0.00 0.00 0.00 63 1022.0
20260508031640 44 295 0.0 0.0 0.00 0.00 0.00 59 1021.9
20260508030639 46 295 0.0 0.0 0.00 0.00 0.00 57 1021.8
20260508025640 47 295 0.0 0.0 0.00 0.00 0.00 55 1021.7
20260508024639 48 295 0.0 1.7 0.00 0.00 0.00 52 1021.5
20260508023640 49 295 0.0 1.7 0.00 0.00 0.00 49 1021.3
20260508022639 50 282 0.0 0.0 0.00 0.00 0.00 48 1021.2
20260508021639 50 291 0.0 2.6 0.00 0.00 0.00 47 1021.2
20260508020639 51 269 0.9 0.9 0.00 0.00 0.00 47 1021.3
20260508015639 51 274 0.0 0.9 0.00 0.00 0.00 47 1021.4
20260508014639 52 309 0.0 1.7 0.00 0.00 0.00 48 1021.3
20260508013639 52 81 0.0 1.7 0.00 0.00 0.00 46 1021.2
20260508012639 52 172 0.0 1.7 0.00 0.00 0.00 45 1021.0
20260508011639 53 269 0.9 3.5 0.00 0.00 0.00 46 1021.2
20260508010641 54 271 0.9 3.5 0.00 0.00 0.00 44 1021.3
20260508003608 56 273 0.0 2.6 0.00 0.00 0.00 42 1021.6
20260507235438 53 293 0.0 0.9 0.00 0.00 0.00 43 1021.6
20260507234438 53 290 0.0 2.6 0.00 0.00 0.00 41 1021.6
20260507233438 53 276 0.0 2.6 0.00 0.00 0.00 40 1021.5
20260507231408 55 269 1.7 4.3 0.00 0.00 0.00 38 1021.5
20260507230408 57 219 1.7 4.3 0.00 0.00 0.00 37 1021.5
20260507225409 58 287 0.0 1.7 0.00 0.00 0.00 35 1021.4
20260507224408 57 274 2.6 4.3 0.00 0.00 0.00 35 1021.6
20260507222308 57 283 1.7 3.5 0.00 0.00 0.00 37 1021.6
20260507221238 56 274 2.6 3.5 0.00 0.00 0.00 40 1021.5
20260507220238 55 266 0.9 3.5 0.00 0.00 0.00 41 1021.7
20260507215238 54 304 2.6 5.2 0.00 0.00 0.00 42 1021.8
20260507214208 54 347 0.9 5.2 0.00 0.00 0.00 43 1021.9
20260507213208 54 300 2.6 5.2 0.00 0.00 0.00 40 1022.0
20260507212208 55 316 2.6 6.1 0.00 0.00 0.00 41 1022.1
20260507211208 55 309 2.6 6.1 0.00 0.00 0.00 44 1022.0
20260507210208 55 356 4.3 6.1 0.00 0.00 0.00 41 1022.1
20260507204138 55 259 0.9 2.6 0.00 0.00 0.00 42 1022.2
20260507201108 55 281 1.7 3.5 0.00 0.00 0.00 42 1022.3
20260507200108 55 250 0.9 3.5 0.00 0.00 0.00 44 1022.4
20260507194037 56 259 1.7 5.2 0.00 0.00 0.00 42 1022.4
20260507193038 57 255 1.7 5.2 0.00 0.00 0.00 45 1022.3
20260507190007 55 268 2.6 2.6 0.00 0.00 0.00 45 1022.4
20260507185009 56 323 2.6 4.3 0.00 0.00 0.00 43 1022.6
20260507184007 58 269 3.5 4.3 0.00 0.00 0.00 41 1022.5
20260507183007 57 247 2.6 4.3 0.00 0.00 0.00 39 1022.5
20260507182007 56 242 0.0 4.3 0.00 0.00 0.00 39 1022.6
20260507180007 56 207 0.0 4.3 0.00 0.00 0.00 42 1022.8
20260507175008 55 266 2.6 4.3 0.00 0.00 0.00 42 1022.8
20260507172940 54 276 1.7 2.6 0.00 0.00 0.00 44 1023.0
20260507171937 52 274 1.7 3.5 0.00 0.00 0.00 44 1023.0
20260507170937 52 302 2.6 3.5 0.00 0.00 0.00 43 1023.0
20260507165907 52 257 0.9 2.6 0.00 0.00 0.00 45 1023.1
20260507163907 52 323 0.9 4.3 0.00 0.00 0.00 43 1023.3
20260507162907 51 272 2.6 4.3 0.00 0.00 0.00 44 1023.4
20260507161907 51 264 1.7 4.3 0.00 0.00 0.00 47 1023.4
20260507160837 51 281 0.9 4.3 0.00 0.00 0.00 47 1023.4
20260507154837 51 274 2.6 5.2 0.00 0.00 0.00 46 1023.5
20260507152427 47 287 0.0 2.6 0.00 0.00 0.00 55 1023.7
20260507151836 47 287 0.0 2.6 0.00 0.00 0.00 55 1023.7
20260507150836 46 275 0.0 2.6 0.00 0.00 0.00 57 1023.7
20260507145836 45 145 0.9 2.6 0.00 0.00 0.00 63 1023.8
20260507144836 43 158 0.0 1.7 0.00 0.00 0.00 66 1023.9
20260507143837 42 140 0.0 1.7 0.00 0.00 0.00 69 1023.9
20260507141837 40 139 0.0 1.7 0.00 0.00 0.00 72 1023.8
20260507140836 39 168 1.7 1.7 0.00 0.00 0.00 77 1023.9
20260507135836 37 141 0.0 1.7 0.00 0.00 0.00 77 1024.0
20260507134836 37 160 0.9 2.6 0.00 0.00 0.00 76 1024.0
20260507133835 36 145 0.9 1.7 0.00 0.00 0.00 78 1024.0
20260507131805 35 166 0.9 1.7 0.00 0.00 0.00 78 1023.9